Tracking 31023 objects as of 20-Jul-2025
HD Live streaming from Space Station
objects crossing your sky now

OPS 0054 (DMSP 5A F1)

Track OPS 0054 (DMSP 5A F1) now!
10-day predictions
OPS 0054 (DMSP 5A F1) is classified as:


NORAD ID: 4331
Int'l Code: 1970-012A
Perigee: 743.7 km
Apogee: 824.9 km
Inclination: 99.0 °
Period: 100.4 minutes
Semi major axis: 7155 km
RCS: 0.986 m2 (medium)
Launch date: February 11, 1970
Source: United States (US)
Launch site: AIR FORCE WESTERN TEST RANGE (AFWTR)
Your satellite tracking list
Your tracking list is empty




NASA's NSSDC Master Catalog

Two Line Element Set (TLE):
1 04331U 70012A   25200.42970260  .00000208  00000-0  89497-4 0  9991
2 04331  98.9802   0.4310 0056721 222.0042 137.6785 14.34369025889470
Source of the keplerian elements: AFSPC